[{"OBJECT_NAME":"BRITE-CA1 (TORONTO)","OBJECT_ID":"2014-033L","EPOCH":"2026-09-12T21:15:48.024864","MEAN_MOTION":14.72811243,"ECCENTRICITY":0.0078293,"INCLINATION":97.9854,"RA_OF_ASC_NODE":23.256,"ARG_OF_PERICENTER":357.1933,"MEAN_ANOMALY":2.8825,"EPHEMERIS_TYPE":0,"CLASSIFICATION_TYPE":"U","NORAD_CAT_ID":40020,"ELEMENT_SET_NO":999,"REV_AT_EPOCH":65512,"BSTAR":0.000074615,"MEAN_MOTION_DOT":0.00000446,"MEAN_MOTION_DDOT":0},{"OBJECT_NAME":"DUCHIFAT-1","OBJECT_ID":"2014-033M","EPOCH":"2026-09-12T17:09:43.582464","MEAN_MOTION":16.08127678,"ECCENTRICITY":0.00077857,"INCLINATION":98.0156,"RA_OF_ASC_NODE":329.085,"ARG_OF_PERICENTER":256.5561,"MEAN_ANOMALY":103.4852,"EPHEMERIS_TYPE":0,"CLASSIFICATION_TYPE":"U","NORAD_CAT_ID":40021,"ELEMENT_SET_NO":999,"REV_AT_EPOCH":66955,"BSTAR":0.0014999646,"MEAN_MOTION_DOT":0.01221689,"MEAN_MOTION_DDOT":0.00091697152},{"OBJECT_NAME":"NANOSATC-BR1","OBJECT_ID":"2014-033Q","EPOCH":"2026-09-13T01:49:30.229248","MEAN_MOTION":15.33998161,"ECCENTRICITY":0.00025917,"INCLINATION":98.0654,"RA_OF_ASC_NODE":296.405,"ARG_OF_PERICENTER":212.8092,"MEAN_ANOMALY":147.2989,"EPHEMERIS_TYPE":0,"CLASSIFICATION_TYPE":"U","NORAD_CAT_ID":40024,"ELEMENT_SET_NO":999,"REV_AT_EPOCH":66744,"BSTAR":0.00037080832,"MEAN_MOTION_DOT":0.00012114,"MEAN_MOTION_DDOT":0},{"OBJECT_NAME":"QB50P1","OBJECT_ID":"2014-033R","EPOCH":"2026-09-13T07:07:37.129728","MEAN_MOTION":15.19430871,"ECCENTRICITY":0.0006875,"INCLINATION":98.096,"RA_OF_ASC_NODE":273.7074,"ARG_OF_PERICENTER":286.6508,"MEAN_ANOMALY":73.397,"EPHEMERIS_TYPE":0,"CLASSIFICATION_TYPE":"U","NORAD_CAT_ID":40025,"ELEMENT_SET_NO":999,"REV_AT_EPOCH":66640,"BSTAR":0.00023896843,"MEAN_MOTION_DOT":0.00004987,"MEAN_MOTION_DDOT":0},{"OBJECT_NAME":"QB50P2","OBJECT_ID":"2014-033Y","EPOCH":"2026-09-12T23:17:10.976352","MEAN_MOTION":15.16162907,"ECCENTRICITY":0.0005992,"INCLINATION":98.0799,"RA_OF_ASC_NODE":258.4116,"ARG_OF_PERICENTER":226.6445,"MEAN_ANOMALY":133.4288,"EPHEMERIS_TYPE":0,"CLASSIFICATION_TYPE":"U","NORAD_CAT_ID":40032,"ELEMENT_SET_NO":999,"REV_AT_EPOCH":66596,"BSTAR":0.00026929,"MEAN_MOTION_DOT":0.00005123,"MEAN_MOTION_DDOT":0},{"OBJECT_NAME":"PERSEUS-M2","OBJECT_ID":"2014-033AD","EPOCH":"2026-09-13T07:23:38.434272","MEAN_MOTION":14.95736702,"ECCENTRICITY":0.00125338,"INCLINATION":98.0052,"RA_OF_ASC_NODE":208.6917,"ARG_OF_PERICENTER":15.366,"MEAN_ANOMALY":344.7939,"EPHEMERIS_TYPE":0,"CLASSIFICATION_TYPE":"U","NORAD_CAT_ID":40037,"ELEMENT_SET_NO":999,"REV_AT_EPOCH":66395,"BSTAR":0.00012132096,"MEAN_MOTION_DOT":0.00001292,"MEAN_MOTION_DDOT":0},{"OBJECT_NAME":"PERSEUS-M1","OBJECT_ID":"2014-033AF","EPOCH":"2026-09-13T06:33:48.018816","MEAN_MOTION":14.95873366,"ECCENTRICITY":0.0011842,"INCLINATION":97.9711,"RA_OF_ASC_NODE":201.8911,"ARG_OF_PERICENTER":13.3014,"MEAN_ANOMALY":346.8517,"EPHEMERIS_TYPE":0,"CLASSIFICATION_TYPE":"U","NORAD_CAT_ID":40039,"ELEMENT_SET_NO":999,"REV_AT_EPOCH":66380,"BSTAR":0.00016305446,"MEAN_MOTION_DOT":0.00001764,"MEAN_MOTION_DDOT":0},{"OBJECT_NAME":"POLYITAN-1","OBJECT_ID":"2014-033AJ","EPOCH":"2026-09-13T01:45:27.433152","MEAN_MOTION":15.36050628,"ECCENTRICITY":0.00063804,"INCLINATION":98.089,"RA_OF_ASC_NODE":290.8294,"ARG_OF_PERICENTER":185.4253,"MEAN_ANOMALY":174.6921,"EPHEMERIS_TYPE":0,"CLASSIFICATION_TYPE":"U","NORAD_CAT_ID":40042,"ELEMENT_SET_NO":999,"REV_AT_EPOCH":66707,"BSTAR":0.00036951487,"MEAN_MOTION_DOT":0.00012896,"MEAN_MOTION_DDOT":0},{"OBJECT_NAME":"TIGRISAT","OBJECT_ID":"2014-033AK","EPOCH":"2026-09-12T21:30:56.376576","MEAN_MOTION":14.85426267,"ECCENTRICITY":0.0049771,"INCLINATION":97.7958,"RA_OF_ASC_NODE":43.9788,"ARG_OF_PERICENTER":145.5027,"MEAN_ANOMALY":214.9435,"EPHEMERIS_TYPE":0,"CLASSIFICATION_TYPE":"U","NORAD_CAT_ID":40043,"ELEMENT_SET_NO":999,"REV_AT_EPOCH":65864,"BSTAR":0.00019087,"MEAN_MOTION_DOT":0.00001626,"MEAN_MOTION_DDOT":0},{"OBJECT_NAME":"AEROCUBE 6A","OBJECT_ID":"2014-033AM","EPOCH":"2026-09-12T23:11:45.571488","MEAN_MOTION":14.98905662,"ECCENTRICITY":0.0039492,"INCLINATION":97.7333,"RA_OF_ASC_NODE":62.0794,"ARG_OF_PERICENTER":80.3026,"MEAN_ANOMALY":280.2654,"EPHEMERIS_TYPE":0,"CLASSIFICATION_TYPE":"U","NORAD_CAT_ID":40045,"ELEMENT_SET_NO":999,"REV_AT_EPOCH":65976,"BSTAR":0.00030333351,"MEAN_MOTION_DOT":0.00003665,"MEAN_MOTION_DDOT":0},{"OBJECT_NAME":"AEROCUBE 6B","OBJECT_ID":"2014-033AN","EPOCH":"2026-09-12T16:23:11.338368","MEAN_MOTION":15.00414008,"ECCENTRICITY":0.00412602,"INCLINATION":97.7329,"RA_OF_ASC_NODE":61.748,"ARG_OF_PERICENTER":66.0941,"MEAN_ANOMALY":294.4597,"EPHEMERIS_TYPE":0,"CLASSIFICATION_TYPE":"U","NORAD_CAT_ID":40046,"ELEMENT_SET_NO":999,"REV_AT_EPOCH":65987,"BSTAR":0.00040757758,"MEAN_MOTION_DOT":0.00005155,"MEAN_MOTION_DDOT":0},{"OBJECT_NAME":"CANX-4","OBJECT_ID":"2014-034C","EPOCH":"2026-09-12T15:01:26.482080","MEAN_MOTION":14.81391154,"ECCENTRICITY":0.00140783,"INCLINATION":98.2968,"RA_OF_ASC_NODE":134.0921,"ARG_OF_PERICENTER":89.7017,"MEAN_ANOMALY":270.5808,"EPHEMERIS_TYPE":0,"CLASSIFICATION_TYPE":"U","NORAD_CAT_ID":40055,"ELEMENT_SET_NO":999,"REV_AT_EPOCH":65747,"BSTAR":0.000084823639,"MEAN_MOTION_DOT":0.00000607,"MEAN_MOTION_DDOT":0},{"OBJECT_NAME":"CANX-5","OBJECT_ID":"2014-034D","EPOCH":"2026-09-13T02:18:33.103008","MEAN_MOTION":14.81409182,"ECCENTRICITY":0.00140747,"INCLINATION":98.2971,"RA_OF_ASC_NODE":134.6276,"ARG_OF_PERICENTER":88.5003,"MEAN_ANOMALY":271.7821,"EPHEMERIS_TYPE":0,"CLASSIFICATION_TYPE":"U","NORAD_CAT_ID":40056,"ELEMENT_SET_NO":999,"REV_AT_EPOCH":64835,"BSTAR":0.000084734772,"MEAN_MOTION_DOT":0.00000606,"MEAN_MOTION_DDOT":0},{"OBJECT_NAME":"UKUBE-1","OBJECT_ID":"2014-037F","EPOCH":"2026-09-13T06:11:56.262912","MEAN_MOTION":15.14713561,"ECCENTRICITY":0.00010893,"INCLINATION":98.4258,"RA_OF_ASC_NODE":268.8842,"ARG_OF_PERICENTER":157.6603,"MEAN_ANOMALY":202.4674,"EPHEMERIS_TYPE":0,"CLASSIFICATION_TYPE":"U","NORAD_CAT_ID":40074,"ELEMENT_SET_NO":999,"REV_AT_EPOCH":66188,"BSTAR":0.00031604565,"MEAN_MOTION_DOT":0.00005775,"MEAN_MOTION_DDOT":0},{"OBJECT_NAME":"BRITE-PL2 (HEWELIUSZ)","OBJECT_ID":"2014-049B","EPOCH":"2026-09-13T06:27:52.537248","MEAN_MOTION":14.94852845,"ECCENTRICITY":0.00141159,"INCLINATION":97.9166,"RA_OF_ASC_NODE":8.9961,"ARG_OF_PERICENTER":171.3518,"MEAN_ANOMALY":188.7948,"EPHEMERIS_TYPE":0,"CLASSIFICATION_TYPE":"U","NORAD_CAT_ID":40119,"ELEMENT_SET_NO":999,"REV_AT_EPOCH":65460,"BSTAR":0.00016927454,"MEAN_MOTION_DOT":0.00001787,"MEAN_MOTION_DDOT":0},{"OBJECT_NAME":"AEROCUBE 5C","OBJECT_ID":"2015-058B","EPOCH":"2026-09-12T15:53:38.950368","MEAN_MOTION":14.91857754,"ECCENTRICITY":0.01374717,"INCLINATION":64.7678,"RA_OF_ASC_NODE":350.36,"ARG_OF_PERICENTER":30.226,"MEAN_ANOMALY":330.6691,"EPHEMERIS_TYPE":0,"CLASSIFICATION_TYPE":"U","NORAD_CAT_ID":40965,"ELEMENT_SET_NO":999,"REV_AT_EPOCH":37870,"BSTAR":0.00012073933,"MEAN_MOTION_DOT":0.00001281,"MEAN_MOTION_DDOT":0},{"OBJECT_NAME":"AEROCUBE 7","OBJECT_ID":"2015-058C","EPOCH":"2026-09-13T04:55:45.160320","MEAN_MOTION":14.96297199,"ECCENTRICITY":0.01272032,"INCLINATION":64.7632,"RA_OF_ASC_NODE":328.983,"ARG_OF_PERICENTER":28.1136,"MEAN_ANOMALY":332.6769,"EPHEMERIS_TYPE":0,"CLASSIFICATION_TYPE":"U","NORAD_CAT_ID":40966,"ELEMENT_SET_NO":999,"REV_AT_EPOCH":37912,"BSTAR":0.00015220385,"MEAN_MOTION_DOT":0.00001842,"MEAN_MOTION_DDOT":0},{"OBJECT_NAME":"FOX-1A (AO-85)","OBJECT_ID":"2015-058D","EPOCH":"2026-09-13T06:35:24.208800","MEAN_MOTION":14.9138458,"ECCENTRICITY":0.01380217,"INCLINATION":64.7757,"RA_OF_ASC_NODE":5.1323,"ARG_OF_PERICENTER":23.5966,"MEAN_ANOMALY":337.1395,"EPHEMERIS_TYPE":0,"CLASSIFICATION_TYPE":"U","NORAD_CAT_ID":40967,"ELEMENT_SET_NO":999,"REV_AT_EPOCH":12670,"BSTAR":0.00012601886,"MEAN_MOTION_DOT":0.00001329,"MEAN_MOTION_DDOT":0},{"OBJECT_NAME":"SINOD-D 1","OBJECT_ID":"2015-058E","EPOCH":"2026-09-13T05:44:40.632288","MEAN_MOTION":14.96492656,"ECCENTRICITY":0.01268563,"INCLINATION":64.7766,"RA_OF_ASC_NODE":343.0242,"ARG_OF_PERICENTER":19.7708,"MEAN_ANOMALY":340.8258,"EPHEMERIS_TYPE":0,"CLASSIFICATION_TYPE":"U","NORAD_CAT_ID":40968,"ELEMENT_SET_NO":999,"REV_AT_EPOCH":12983,"BSTAR":0.00015875586,"MEAN_MOTION_DOT":0.00001939,"MEAN_MOTION_DDOT":0},{"OBJECT_NAME":"SNAP-3 ALICE","OBJECT_ID":"2015-058G","EPOCH":"2026-09-13T03:06:29.947392","MEAN_MOTION":16.02311752,"ECCENTRICITY":0.00152568,"INCLINATION":64.736,"RA_OF_ASC_NODE":153.6912,"ARG_OF_PERICENTER":270.6795,"MEAN_ANOMALY":89.2623,"EPHEMERIS_TYPE":0,"CLASSIFICATION_TYPE":"U","NORAD_CAT_ID":40970,"ELEMENT_SET_NO":999,"REV_AT_EPOCH":13072,"BSTAR":0.0018644205,"MEAN_MOTION_DOT":0.01103896,"MEAN_MOTION_DDOT":0.00064774733},{"OBJECT_NAME":"LMRST-SAT","OBJECT_ID":"2015-058H","EPOCH":"2026-09-12T15:35:05.218080","MEAN_MOTION":14.90980807,"ECCENTRICITY":0.01393783,"INCLINATION":64.7763,"RA_OF_ASC_NODE":3.5865,"ARG_OF_PERICENTER":25.7424,"MEAN_ANOMALY":335.0538,"EPHEMERIS_TYPE":0,"CLASSIFICATION_TYPE":"U","NORAD_CAT_ID":40971,"ELEMENT_SET_NO":999,"REV_AT_EPOCH":12659,"BSTAR":0.00011785333,"MEAN_MOTION_DOT":0.00001221,"MEAN_MOTION_DDOT":0},{"OBJECT_NAME":"SNAP-3 EDDIE","OBJECT_ID":"2015-058J","EPOCH":"2026-09-13T02:03:04.669344","MEAN_MOTION":16.08228634,"ECCENTRICITY":0.0015042,"INCLINATION":64.7329,"RA_OF_ASC_NODE":143.1415,"ARG_OF_PERICENTER":266.7982,"MEAN_ANOMALY":93.1467,"EPHEMERIS_TYPE":0,"CLASSIFICATION_TYPE":"U","NORAD_CAT_ID":40972,"ELEMENT_SET_NO":999,"REV_AT_EPOCH":13288,"BSTAR":0.0011517795,"MEAN_MOTION_DOT":0.00982138,"MEAN_MOTION_DDOT":0.00055303806},{"OBJECT_NAME":"PROPCUBE 3","OBJECT_ID":"2015-058K","EPOCH":"2026-09-13T04:51:44.154432","MEAN_MOTION":14.94757444,"ECCENTRICITY":0.01310982,"INCLINATION":64.7687,"RA_OF_ASC_NODE":337.4191,"ARG_OF_PERICENTER":26.5221,"MEAN_ANOMALY":334.2521,"EPHEMERIS_TYPE":0,"CLASSIFICATION_TYPE":"U","NORAD_CAT_ID":40973,"ELEMENT_SET_NO":999,"REV_AT_EPOCH":12795,"BSTAR":0.00014380049,"MEAN_MOTION_DOT":0.00001671,"MEAN_MOTION_DDOT":0}]